Regional Weather Roundup
Issued by NWS

Home | Current Version | Previous Version | Graphics & Text | Print | Product List | Glossary On
Versions: 1 2 3 4 5 6 7 8 9 10 11 12 13 14 15 16 17 18 19 20 21 22 23 24 25 26 27 28 29 30 31 32 33 34 35 36 37 38 39 40 41 42 43 44 45 46 47 48 49 50
877
ASUS44 KJAN 011803
RWRMS

MISSISSIPPI HOURLY WEATHER ROUNDUP
NATIONAL WEATHER SERVICE JACKSON MS
100 PM CDT WED OCT 01 2014

NOTE: "FAIR: INDICATES FEW OR NO CLOUDS BELOW 12,000 FEET WITH NO
SIGNIFICANT WEATHER AND/OR OBSTRUCTIONS TO VISIBILITY.

MSZ001>002-007>008-010>013-018>021-025>028-034>036-011900-
NORTHWEST MISSISSIPPI

CITY           SKY/WX    TMP DP  RH WIND       PRES   REMARKS
CLARKSDALE     FAIR      86  66  51 S9        29.92F
CLEVELAND      FAIR      88  67  50 S14       29.90F HX  91
GREENWOOD      FAIR      85  66  53 S7        29.93F
6HR MIN TEMP:  63; 6HR MAX TEMP:  87;

GREENVILLE     PTSUNNY   88  67  49 S12       29.90F HX  91
6HR MIN TEMP:  72; 6HR MAX TEMP:  89;

GRENADA        FAIR      88  64  45 S9        29.94F
OLIVE BRANCH   MOSUNNY   84  64  51 S12       29.94F
OXFORD         FAIR      82  63  51 S6        29.97F
TUNICA         MOCLDY    88  64  45 S10G16    29.92F
$$

MSZ003>006-009-014>017-022>024-029>033-037>039-011900-
NORTHEAST MISSISSIPPI

CITY           SKY/WX    TMP DP  RH WIND       PRES   REMARKS
COLUMBUS AFB   FAIR      85  62  45 S10       29.96F
6HR MIN TEMP:  59; 6HR MAX TEMP:  85;

CORINTH        FAIR      88  55  33 S10G17    29.96S
GOLDN TRIANGLE MOSUNNY   86  61  42 SE8       29.96F
STARKVILLE     FAIR      86  61  42 SE8       29.95F
TUPELO         FAIR      88  58  36 SW12      29.95F
6HR MIN TEMP:  60; 6HR MAX TEMP:  88;

$$

MSZ040-058-011900-
CENTRAL MISSISSIPPI

CITY           SKY/WX    TMP DP  RH WIND       PRES   REMARKS
JACKSON INTL   PTSUNNY   87  67  51 SE10      29.94F HX  90
6HR MIN TEMP:  71; 6HR MAX TEMP:  87;

JACKSON HAWKNS FAIR      86  67  52 SE6       29.94F
6HR MIN TEMP:  72; 6HR MAX TEMP:  86;

MERIDIAN KEY   FAIR      85  62  46 S7        29.96F
6HR MIN TEMP:  60; 6HR MAX TEMP:  86;

MERIDIAN NAS   FAIR      87  61  41 VRB7      29.96F
6HR MIN TEMP:  60; 6HR MAX TEMP:  88;

RAYMOND        FAIR      86  81  84 S10G16    29.94F HX 102
VICKSBURG      FAIR      87  66  49 SE13      29.92F
6HR MIN TEMP:  72; 6HR MAX TEMP:  87;

$$

MSZ059>079-011900-
SOUTH MISSISSIPPI

CITY           SKY/WX    TMP DP  RH WIND       PRES   REMARKS
BROOKHAVEN     FAIR      84  70  61 S10       29.96F
COLUMBIA       FAIR      84  70  61 VRB7G13   29.93F
HATTIESBURG    FAIR      85  65  51 SE6       29.96F
6HR MIN TEMP:  66; 6HR MAX TEMP:  85;

MCCOMB         PTSUNNY   84  70  62 SE12      29.94F
6HR MIN TEMP:  71; 6HR MAX TEMP:  84;

NATCHEZ        FAIR      82  72  69 S7        29.93F
6HR MIN TEMP:  72; 6HR MAX TEMP:  82;

PINE BELT      FAIR      84  66  54 SE8       29.97F
6HR MIN TEMP:  64; 6HR MAX TEMP:  84;

$$

MSZ080>082-011900-
COASTAL MISSISSIPPI

CITY           SKY/WX    TMP DP  RH WIND       PRES   REMARKS
BAY ST LOUIS   PTSUNNY   82  70  65 SE9       29.94F
BILOXI         FAIR      82  72  71 SE8       29.95F
6HR MIN TEMP:  71; 6HR MAX TEMP:  84; 6HR PCP: TRACE;

PASCAGOULA     FAIR      84  70  62 VRB7      29.96F
6HR MIN TEMP:  63; 6HR MAX TEMP:  84;

GULFPORT       FAIR      81  72  74 SE12      29.94F
6HR MIN TEMP:  71; 6HR MAX TEMP:  83;

$$



USA.gov is the U.S. government's official web portal to all federal, state and local government web resources and services.